Home   Weather   Dublin   Past weeks
Flag for Ireland

Past Weather in Dublin, Ireland — Yesterday and Last 2 Weeks

Now
45 °F

Clear.


Feels Like: 43 °F
Forecast: 66 / 48 °F
Wind: 3 mph from East

Location: Dublin Airport

Current Time: Apr 9, 2020 at 10:42:38 pm

Latest Report: Apr 9, 2020 at 10:00 pm


Visibility: 10 mi

Pressure: 30.21 "Hg

Humidity: 100%

Dew Point: 45 °F

Location of DublinLocation

Past Weather in Dublin — Graph

°F

Dublin Temperature Yesterday

Maximum temperature yesterday: 61 °F (at 12:30 pm)
Minimum temperature yesterday: 36 °F (at 4:00 am)
Average temperature yesterday: 49 °F

High & Low Weather Summary for the Past Weeks

 TemperatureHumidityPressure
High61 °F (Apr 8, 12:30 pm)100% (Mar 25, 9:00 pm)30.92 "Hg (Mar 25, 9:00 pm)
Low30 °F (Mar 29, 11:00 pm)44% (Apr 6, 3:00 pm)29.42 "Hg (Apr 5, 10:30 pm)
Average46 °F77%30.27 "Hg
* Reported Mar 25 7:00 pm — Apr 9 8:30 pm, Dublin. Weather by CustomWeather, © 2020

Note: Actual official high and low records may vary slightly from our data, if they occured in-between our weather recording intervals... More about our weather records

Dublin Weather History for the Previous 24 Hours

Scroll right to see more
 ConditionsComfort  
Time TempWeatherWind HumidityBarometerVisibility
8:30 pm
Thu, Apr 9
48 °FClear.7 mph87%30.21 "Hg10 mi
8:00 pm50 °FSunny.6 mph88%30.21 "Hg10 mi
7:30 pm50 °FSunny.6 mph88%30.21 "Hg10 mi
7:00 pm52 °FSunny.6 mph82%30.21 "Hg10 mi
6:30 pm52 °FSunny.7 mph82%30.21 "Hg10 mi
6:00 pm52 °FSunny.7 mph82%30.21 "Hg10 mi
5:30 pm52 °FSunny.9 mph82%30.21 "Hg10 mi
5:00 pm54 °FSunny.8 mph77%30.21 "Hg10 mi
4:30 pm54 °FSunny.10 mph77%30.21 "Hg10 mi
4:00 pm55 °FSunny.12 mph72%30.24 "Hg10 mi
3:30 pm54 °FPassing clouds.10 mph82%30.24 "HgN/A
3:00 pm55 °FPassing clouds.9 mph77%30.24 "HgN/A
2:30 pm55 °FPassing clouds.10 mph72%30.24 "HgN/A
2:00 pm55 °FSunny.10 mph77%30.24 "Hg10 mi
1:00 pm55 °FPartly sunny.10 mph67%30.24 "HgN/A
12:30 pm55 °FPartly sunny.12 mph67%30.27 "HgN/A
12:00 pm55 °FPartly sunny.12 mph67%30.27 "HgN/A
11:30 am55 °FPartly sunny.10 mph67%30.27 "HgN/A
11:00 am55 °FPartly sunny.12 mph67%30.27 "HgN/A
10:30 am54 °FPartly sunny.9 mph72%30.27 "HgN/A
10:00 am54 °FPartly sunny.9 mph77%30.27 "HgN/A
9:30 am50 °FPartly sunny.7 mph82%30.27 "HgN/A
9:00 am48 °FPartly sunny.7 mph87%30.27 "HgN/A
8:30 am46 °FPartly sunny.5 mph100%30.24 "HgN/A
8:00 am43 °FPartly sunny.6 mph100%30.24 "HgN/A
7:30 am39 °FFog.5 mph93%30.24 "HgN/A
7:00 am37 °FFog.2 mph93%30.24 "HgN/A
6:30 am37 °FPassing clouds.2 mph100%30.24 "Hg5 mi
6:00 am37 °FPassing clouds.5 mph100%30.24 "Hg4 mi
5:30 am39 °FPassing clouds.6 mph100%30.24 "Hg4 mi
5:00 am41 °FPassing clouds.7 mph100%30.24 "Hg4 mi
4:30 am39 °FPassing clouds.5 mph100%30.24 "Hg4 mi
4:00 am37 °FPassing clouds.5 mph100%30.24 "Hg5 mi
3:30 am36 °FFog.3 mph100%30.24 "Hg3 mi
3:00 am37 °FPassing clouds.3 mph100%30.24 "Hg4 mi
2:00 am39 °FPassing clouds.1 mph100%30.24 "Hg4 mi
1:30 am39 °FFog.3 mph93%30.24 "HgN/A
1:00 am39 °FPassing clouds.2 mph93%30.27 "HgN/A
12:30 am39 °FPassing clouds.2 mph93%30.24 "HgN/A
12:00 am39 °FPassing clouds.2 mph100%30.27 "HgN/A
11:30 pm
Wed, Apr 8
41 °FPassing clouds.No wind93%30.24 "HgN/A
11:00 pm41 °FPassing clouds.2 mph100%30.24 "HgN/A
10:30 pm43 °FPassing clouds.2 mph93%30.27 "HgN/A
10:00 pm43 °FPassing clouds.2 mph87%30.24 "HgN/A
Weather by CustomWeather, © 2020

See weather overview

Advertising